| time (UTC) | temp F | wind direction | speed knots | gust knots | rain 1hr in | rain 24hr in | rain mn in | humidity % | barometer mb |
| 20260507055317 | 70 | 175 | 0.0 | 1.7 | 0.00 | 0.00 | 0.00 | 78 | 1015.4 |
| 20260507054814 | 70 | 100 | 0.0 | 1.7 | 0.00 | 0.00 | 0.00 | 78 | 1015.4 |
| 20260507054310 | 70 | 66 | 0.0 | 0.0 | 0.00 | 0.00 | 0.00 | 78 | 1015.4 |
| 20260507053808 | 71 | 142 | 0.0 | 1.7 | 0.00 | 0.00 | 0.00 | 78 | 1015.6 |
| 20260507053306 | 71 | 246 | 0.0 | 1.7 | 0.00 | 0.00 | 0.00 | 78 | 1015.6 |
| 20260507052805 | 70 | 205 | 1.7 | 1.7 | 0.00 | 0.00 | 0.00 | 78 | 1015.5 |
| 20260507052300 | 70 | 103 | 0.0 | 1.7 | 0.00 | 0.00 | 0.00 | 79 | 1015.8 |
| 20260507051759 | 70 | 145 | 0.0 | 1.7 | 0.00 | 0.00 | 0.00 | 79 | 1015.6 |
| 20260507051255 | 69 | 154 | 0.0 | 0.9 | 0.00 | 0.00 | 0.00 | 80 | 1015.8 |
| 20260507050752 | 69 | 309 | 0.0 | 0.0 | 0.00 | 0.00 | 0.00 | 81 | 1015.7 |
| 20260507050249 | 69 | 124 | 0.0 | 0.0 | 0.00 | 0.00 | 0.00 | 80 | 1015.5 |
| 20260507045745 | 69 | 189 | 0.0 | 0.0 | 0.00 | 0.00 | 0.00 | 81 | 1015.5 |
| 20260507045241 | 69 | 127 | 0.0 | 0.0 | 0.00 | 0.00 | 0.00 | 81 | 1015.8 |
| 20260507044739 | 69 | 157 | 0.0 | 0.9 | 0.00 | 0.00 | 0.00 | 81 | 1015.7 |
| 20260507044236 | 69 | 217 | 0.0 | 0.0 | 0.00 | 0.00 | 0.00 | 81 | 1015.6 |
| 20260507043732 | 69 | 142 | 0.0 | 0.0 | 0.00 | 0.00 | 0.00 | 81 | 1015.9 |
| 20260507043229 | 69 | 38 | 0.0 | 0.0 | 0.00 | 0.00 | 0.00 | 81 | 1015.9 |
| 20260507042725 | 69 | 38 | 0.0 | 0.0 | 0.00 | 0.00 | 0.00 | 80 | 1016.1 |
| 20260507042220 | 69 | 38 | 0.0 | 0.0 | 0.00 | 0.00 | 0.00 | 79 | 1015.9 |
| 20260507041718 | 70 | 37 | 0.0 | 0.0 | 0.00 | 0.00 | 0.00 | 79 | 1015.7 |
| 20260507041214 | 70 | 66 | 0.0 | 0.0 | 0.00 | 0.00 | 0.00 | 79 | 1015.8 |
| 20260507040711 | 70 | 62 | 0.0 | 0.0 | 0.00 | 0.00 | 0.00 | 78 | 1015.8 |
| 20260507040207 | 70 | 144 | 0.9 | 0.9 | 0.00 | 0.00 | 0.00 | 79 | 1015.8 |
| 20260507035703 | 70 | 173 | 0.0 | 0.0 | 0.00 | 0.00 | 0.00 | 79 | 1015.9 |
| 20260507035159 | 70 | 141 | 0.0 | 0.9 | 0.00 | 0.00 | 0.00 | 78 | 1015.9 |
| 20260507034656 | 70 | 197 | 0.0 | 0.0 | 0.00 | 0.00 | 0.00 | 78 | 1015.9 |
| 20260507034154 | 70 | 118 | 0.0 | 0.0 | 0.00 | 0.00 | 0.00 | 79 | 1015.9 |
| 20260507033652 | 70 | 76 | 0.0 | 0.0 | 0.00 | 0.00 | 0.00 | 79 | 1016.0 |
| 20260507033149 | 70 | 62 | 0.0 | 0.0 | 0.00 | 0.00 | 0.00 | 79 | 1015.8 |
| 20260507032646 | 70 | 129 | 0.0 | 0.9 | 0.00 | 0.00 | 0.00 | 79 | 1015.9 |
| 20260507032142 | 71 | 124 | 0.0 | 1.7 | 0.00 | 0.00 | 0.00 | 79 | 1015.8 |
| 20260507031639 | 70 | 98 | 0.0 | 0.0 | 0.00 | 0.00 | 0.00 | 77 | 1016.2 |
| 20260507031135 | 71 | 117 | 0.0 | 0.0 | 0.00 | 0.00 | 0.00 | 76 | 1016.1 |
| 20260507030632 | 71 | 117 | 0.0 | 0.0 | 0.00 | 0.00 | 0.00 | 76 | 1015.7 |
| 20260507030130 | 71 | 129 | 0.0 | 0.9 | 0.00 | 0.00 | 0.00 | 75 | 1015.6 |
| 20260507025627 | 71 | 84 | 0.0 | 0.0 | 0.00 | 0.00 | 0.00 | 75 | 1015.8 |
| 20260507025124 | 72 | 66 | 0.0 | 0.9 | 0.00 | 0.00 | 0.00 | 75 | 1015.6 |
| 20260507024622 | 71 | 164 | 0.0 | 0.0 | 0.00 | 0.00 | 0.00 | 74 | 1015.7 |
| 20260507024119 | 72 | 124 | 0.0 | 0.0 | 0.00 | 0.00 | 0.00 | 74 | 1015.6 |
| 20260507023614 | 72 | 128 | 0.0 | 0.9 | 0.00 | 0.00 | 0.00 | 74 | 1015.5 |
| 20260507023112 | 72 | 141 | 0.0 | 0.0 | 0.00 | 0.00 | 0.00 | 73 | 1015.7 |
| 20260507022609 | 72 | 142 | 0.0 | 0.0 | 0.00 | 0.00 | 0.00 | 73 | 1015.8 |
| 20260507022104 | 72 | 142 | 0.0 | 0.0 | 0.00 | 0.00 | 0.00 | 72 | 1015.7 |
| 20260507021601 | 73 | 142 | 0.0 | 0.0 | 0.00 | 0.00 | 0.00 | 72 | 1015.6 |
| 20260507021057 | 73 | 164 | 0.0 | 0.0 | 0.00 | 0.00 | 0.00 | 72 | 1015.7 |
| 20260507020555 | 73 | 164 | 0.0 | 0.0 | 0.00 | 0.00 | 0.00 | 71 | 1015.8 |
| 20260507020051 | 73 | 157 | 0.0 | 0.0 | 0.00 | 0.00 | 0.00 | 71 | 1015.5 |
| 20260507015550 | 74 | 147 | 0.0 | 0.0 | 0.00 | 0.00 | 0.00 | 70 | 1015.4 |
| 20260507015047 | 74 | 170 | 0.0 | 0.0 | 0.00 | 0.00 | 0.00 | 69 | 1015.6 |
| 20260507014543 | 74 | 142 | 0.0 | 0.0 | 0.00 | 0.00 | 0.00 | 69 | 1015.6 |
| 20260507014038 | 75 | 160 | 0.0 | 0.9 | 0.00 | 0.00 | 0.00 | 69 | 1015.5 |
| 20260507013536 | 75 | 66 | 0.0 | 0.9 | 0.00 | 0.00 | 0.00 | 68 | 1015.7 |
| 20260507013033 | 75 | 55 | 0.0 | 0.0 | 0.00 | 0.00 | 0.00 | 66 | 1015.6 |
| 20260507012530 | 76 | 55 | 0.0 | 0.0 | 0.00 | 0.00 | 0.00 | 65 | 1015.6 |
| 20260507012026 | 76 | 357 | 0.0 | 0.0 | 0.00 | 0.00 | 0.00 | 65 | 1015.6 |
| 20260507011524 | 76 | 241 | 0.9 | 1.7 | 0.00 | 0.00 | 0.00 | 64 | 1015.6 |
| 20260507011020 | 77 | 249 | 0.0 | 1.7 | 0.00 | 0.00 | 0.00 | 64 | 1015.7 |
| 20260507010514 | 77 | 255 | 0.0 | 1.7 | 0.00 | 0.00 | 0.00 | 63 | 1015.8 |
| 20260507010011 | 77 | 233 | 0.9 | 2.6 | 0.00 | 0.00 | 0.00 | 63 | 1015.7 |
| 20260507005509 | 77 | 230 | 0.0 | 1.7 | 0.00 | 0.00 | 0.00 | 62 | 1015.2 |
| 20260507005005 | 77 | 129 | 0.9 | 1.7 | 0.00 | 0.00 | 0.00 | 62 | 1015.3 |
| 20260507004502 | 78 | 92 | 1.7 | 4.3 | 0.00 | 0.00 | 0.00 | 62 | 1015.2 |
| 20260507003959 | 78 | 274 | 0.9 | 2.6 | 0.00 | 0.00 | 0.00 | 62 | 1015.0 |
| 20260507003454 | 78 | 207 | 0.9 | 3.5 | 0.00 | 0.00 | 0.00 | 62 | 1014.8 |
| 20260507002949 | 78 | 130 | 0.0 | 4.3 | 0.00 | 0.00 | 0.00 | 61 | 1014.8 |
| 20260507002447 | 78 | 129 | 4.3 | 4.3 | 0.00 | 0.00 | 0.00 | 61 | 1014.7 |
| 20260507001943 | 78 | 71 | 2.6 | 4.3 | 0.00 | 0.00 | 0.00 | 61 | 1014.5 |
| 20260507001440 | 79 | 88 | 2.6 | 3.5 | 0.00 | 0.00 | 0.00 | 61 | 1014.5 |
| 20260507000937 | 79 | 166 | 2.6 | 4.3 | 0.00 | 0.00 | 0.00 | 61 | 1014.5 |
| 20260507000435 | 79 | 101 | 2.6 | 3.5 | 0.00 | 0.00 | 0.00 | 60 | 1014.5 |
| 20260506235928 | 80 | 145 | 0.0 | 3.5 | 0.00 | 0.00 | 0.00 | 61 | 1014.7 |
| 20260506235426 | 80 | 284 | 0.0 | 3.5 | 0.00 | 0.00 | 0.00 | 60 | 1014.6 |
| 20260506234921 | 80 | 126 | 1.7 | 5.2 | 0.00 | 0.00 | 0.00 | 60 | 1014.3 |
| 20260506234420 | 81 | 87 | 1.7 | 2.6 | 0.00 | 0.00 | 0.00 | 60 | 1014.3 |
| 20260506233917 | 81 | 140 | 2.6 | 4.3 | 0.00 | 0.00 | 0.00 | 60 | 1014.2 |
| 20260506233413 | 81 | 146 | 3.5 | 3.5 | 0.00 | 0.00 | 0.00 | 60 | 1014.4 |
| 20260506232910 | 82 | 135 | 3.5 | 3.5 | 0.00 | 0.00 | 0.00 | 60 | 1014.3 |
| 20260506232406 | 82 | 92 | 3.5 | 3.5 | 0.00 | 0.00 | 0.00 | 60 | 1014.1 |
| 20260506231902 | 83 | 142 | 0.9 | 7.0 | 0.00 | 0.00 | 0.00 | 60 | 1014.4 |
| 20260506231400 | 83 | 130 | 1.7 | 3.5 | 0.00 | 0.00 | 0.00 | 59 | 1014.4 |
| 20260506230857 | 84 | 59 | 2.6 | 4.3 | 0.00 | 0.00 | 0.00 | 59 | 1014.4 |
| 20260506230353 | 84 | 70 | 2.6 | 3.5 | 0.00 | 0.00 | 0.00 | 59 | 1014.2 |
| 20260506225849 | 84 | 122 | 3.5 | 6.1 | 0.00 | 0.00 | 0.00 | 59 | 1014.7 |
| 20260506225347 | 85 | 56 | 2.6 | 5.2 | 0.00 | 0.00 | 0.00 | 58 | 1014.4 |
| 20260506224844 | 85 | 73 | 5.2 | 7.8 | 0.00 | 0.00 | 0.00 | 58 | 1014.7 |
| 20260506224342 | 85 | 89 | 2.6 | 5.2 | 0.00 | 0.00 | 0.00 | 58 | 1014.6 |
| 20260506223838 | 86 | 120 | 0.9 | 3.5 | 0.00 | 0.00 | 0.00 | 57 | 1014.4 |
| 20260506223333 | 85 | 252 | 1.7 | 3.5 | 0.00 | 0.00 | 0.00 | 58 | 1014.1 |
| 20260506222830 | 85 | 71 | 3.5 | 3.5 | 0.00 | 0.00 | 0.00 | 58 | 1014.3 |
| 20260506222326 | 85 | 81 | 2.6 | 5.2 | 0.00 | 0.00 | 0.00 | 59 | 1014.3 |
| 20260506221824 | 85 | 119 | 1.7 | 7.8 | 0.00 | 0.00 | 0.00 | 59 | 1014.2 |
| 20260506221321 | 85 | 100 | 1.7 | 5.2 | 0.00 | 0.00 | 0.00 | 59 | 1014.4 |
| 20260506220819 | 86 | 77 | 1.7 | 7.8 | 0.00 | 0.00 | 0.00 | 59 | 1014.4 |
| 20260506220319 | 87 | 60 | 2.6 | 5.2 | 0.00 | 0.00 | 0.00 | 57 | 1014.5 |
| 20260506215816 | 87 | 170 | 0.0 | 6.1 | 0.00 | 0.00 | 0.00 | 58 | 1014.4 |
| 20260506215312 | 86 | 249 | 0.0 | 4.3 | 0.00 | 0.00 | 0.00 | 60 | 1014.3 |
| 20260506214808 | 86 | 103 | 0.9 | 4.3 | 0.00 | 0.00 | 0.00 | 61 | 1014.4 |
| 20260506214305 | 87 | 66 | 1.7 | 4.3 | 0.00 | 0.00 | 0.00 | 59 | 1014.3 |
| 20260506213804 | 87 | 159 | 3.5 | 5.2 | 0.00 | 0.00 | 0.00 | 57 | 1014.3 |
| 20260506213300 | 87 | 73 | 2.6 | 6.1 | 0.00 | 0.00 | 0.00 | 57 | 1014.4 |
| 20260506212758 | 87 | 100 | 4.3 | 5.2 | 0.00 | 0.00 | 0.00 | 57 | 1014.5 |
| 20260506212253 | 87 | 101 | 1.7 | 6.1 | 0.00 | 0.00 | 0.00 | 58 | 1014.5 |
| 20260506211748 | 88 | 94 | 4.3 | 7.8 | 0.00 | 0.00 | 0.00 | 57 | 1014.5 |
| 20260506211245 | 88 | 82 | 2.6 | 5.2 | 0.00 | 0.00 | 0.00 | 56 | 1014.6 |
| 20260506210742 | 87 | 110 | 4.3 | 7.8 | 0.00 | 0.00 | 0.00 | 57 | 1014.5 |
| 20260506210239 | 88 | 136 | 1.7 | 7.8 | 0.00 | 0.00 | 0.00 | 57 | 1014.6 |
| 20260506205736 | 89 | 83 | 2.6 | 4.3 | 0.00 | 0.00 | 0.00 | 54 | 1014.4 |
| 20260506205232 | 89 | 100 | 2.6 | 4.3 | 0.00 | 0.00 | 0.00 | 55 | 1014.5 |
| 20260506204729 | 87 | 85 | 4.3 | 7.0 | 0.00 | 0.00 | 0.00 | 58 | 1014.6 |
| 20260506204226 | 89 | 46 | 2.6 | 9.6 | 0.00 | 0.00 | 0.00 | 54 | 1014.5 |
| 20260506203724 | 90 | 96 | 2.6 | 7.0 | 0.00 | 0.00 | 0.00 | 53 | 1014.6 |
| 20260506203221 | 91 | 76 | 7.0 | 7.8 | 0.00 | 0.00 | 0.00 | 52 | 1014.7 |
| 20260506202719 | 92 | 333 | 0.9 | 5.2 | 0.00 | 0.00 | 0.00 | 41 | 1014.7 |
| 20260506202215 | 91 | 257 | 1.7 | 6.1 | 0.00 | 0.00 | 0.00 | 46 | 1014.9 |
| 20260506201712 | 91 | 268 | 1.7 | 6.1 | 0.00 | 0.00 | 0.00 | 44 | 1014.8 |
| 20260506201209 | 92 | 84 | 2.6 | 3.5 | 0.00 | 0.00 | 0.00 | 42 | 1014.9 |
| 20260506200705 | 92 | 239 | 2.6 | 4.3 | 0.00 | 0.00 | 0.00 | 42 | 1015.0 |
| 20260506200202 | 92 | 256 | 3.5 | 5.2 | 0.00 | 0.00 | 0.00 | 42 | 1015.2 |
| 20260506195658 | 92 | 159 | 2.6 | 3.5 | 0.00 | 0.00 | 0.00 | 44 | 1014.9 |
| 20260506195155 | 92 | 165 | 1.7 | 4.3 | 0.00 | 0.00 | 0.00 | 43 | 1015.2 |
| 20260506194653 | 92 | 142 | 1.7 | 4.3 | 0.00 | 0.00 | 0.00 | 43 | 1015.0 |
| 20260506194148 | 92 | 223 | 2.6 | 2.6 | 0.00 | 0.00 | 0.00 | 44 | 1015.2 |
| 20260506193646 | 91 | 156 | 1.7 | 4.3 | 0.00 | 0.00 | 0.00 | 46 | 1015.5 |
| 20260506193143 | 92 | 140 | 1.7 | 1.7 | 0.00 | 0.00 | 0.00 | 44 | 1015.3 |
| 20260506192640 | 91 | 190 | 1.7 | 3.5 | 0.00 | 0.00 | 0.00 | 44 | 1015.5 |
| 20260506192136 | 91 | 155 | 0.0 | 2.6 | 0.00 | 0.00 | 0.00 | 45 | 1015.5 |
| 20260506191633 | 91 | 256 | 1.7 | 7.8 | 0.00 | 0.00 | 0.00 | 46 | 1015.7 |
| 20260506191129 | 92 | 246 | 1.7 | 6.1 | 0.00 | 0.00 | 0.00 | 44 | 1015.7 |
| 20260506190627 | 91 | 173 | 2.6 | 4.3 | 0.00 | 0.00 | 0.00 | 45 | 1015.8 |
| 20260506190123 | 90 | 235 | 2.6 | 4.3 | 0.00 | 0.00 | 0.00 | 46 | 1015.7 |
| 20260506185621 | 91 | 249 | 3.5 | 5.2 | 0.00 | 0.00 | 0.00 | 46 | 1015.7 |
| 20260506185116 | 91 | 65 | 2.6 | 3.5 | 0.00 | 0.00 | 0.00 | 46 | 1015.9 |
| 20260506184614 | 90 | 261 | 2.6 | 4.3 | 0.00 | 0.00 | 0.00 | 47 | 1015.8 |
| 20260506184111 | 90 | 238 | 1.7 | 6.1 | 0.00 | 0.00 | 0.00 | 46 | 1016.0 |
| 20260506183608 | 90 | 135 | 0.0 | 3.5 | 0.00 | 0.00 | 0.00 | 45 | 1016.2 |
| 20260506183104 | 90 | 160 | 3.5 | 5.2 | 0.00 | 0.00 | 0.00 | 47 | 1015.9 |
| 20260506182602 | 89 | 242 | 4.3 | 5.2 | 0.00 | 0.00 | 0.00 | 47 | 1016.3 |
| 20260506182058 | 90 | 159 | 0.9 | 3.5 | 0.00 | 0.00 | 0.00 | 45 | 1016.2 |
| 20260506181556 | 89 | 177 | 0.9 | 6.1 | 0.00 | 0.00 | 0.00 | 48 | 1016.3 |
| 20260506181053 | 89 | 314 | 1.7 | 3.5 | 0.00 | 0.00 | 0.00 | 48 | 1016.2 |
| 20260506180549 | 89 | 260 | 1.7 | 5.2 | 0.00 | 0.00 | 0.00 | 47 | 1016.4 |
| 20260506180046 | 89 | 283 | 0.9 | 2.6 | 0.00 | 0.00 | 0.00 | 49 | 1016.5 |
| 20260506175542 | 89 | 216 | 3.5 | 5.2 | 0.00 | 0.00 | 0.00 | 49 | 1016.5 |
| 20260506175039 | 88 | 289 | 1.7 | 3.5 | 0.00 | 0.00 | 0.00 | 49 | 1016.6 |
| 20260506174538 | 88 | 233 | 2.6 | 5.2 | 0.00 | 0.00 | 0.00 | 50 | 1016.5 |
| 20260506174033 | 89 | 224 | 1.7 | 4.3 | 0.00 | 0.00 | 0.00 | 49 | 1016.6 |
| 20260506173531 | 88 | 255 | 2.6 | 2.6 | 0.00 | 0.00 | 0.00 | 51 | 1016.8 |
| 20260506173028 | 88 | 214 | 1.7 | 4.3 | 0.00 | 0.00 | 0.00 | 48 | 1016.8 |
| 20260506172526 | 89 | 77 | 0.9 | 3.5 | 0.00 | 0.00 | 0.00 | 48 | 1016.9 |
| 20260506172021 | 88 | 248 | 0.0 | 4.3 | 0.00 | 0.00 | 0.00 | 51 | 1017.0 |
| 20260506171519 | 87 | 226 | 0.0 | 5.2 | 0.00 | 0.00 | 0.00 | 50 | 1017.0 |
| 20260506171017 | 87 | 30 | 0.0 | 4.3 | 0.00 | 0.00 | 0.00 | 51 | 1017.0 |
| 20260506170514 | 87 | 268 | 0.9 | 5.2 | 0.00 | 0.00 | 0.00 | 52 | 1017.0 |
| 20260506170012 | 87 | 209 | 3.5 | 3.5 | 0.00 | 0.00 | 0.00 | 52 | 1017.1 |
| 20260506165510 | 86 | 212 | 1.7 | 6.1 | 0.00 | 0.00 | 0.00 | 52 | 1017.0 |
| 20260506165006 | 86 | 156 | 4.3 | 5.2 | 0.00 | 0.00 | 0.00 | 50 | 1017.2 |
| 20260506164502 | 86 | 252 | 3.5 | 5.2 | 0.00 | 0.00 | 0.00 | 53 | 1017.3 |
| 20260506164000 | 86 | 233 | 1.7 | 5.2 | 0.00 | 0.00 | 0.00 | 52 | 1017.6 |
| 20260506163455 | 85 | 295 | 0.9 | 6.1 | 0.00 | 0.00 | 0.00 | 53 | 1017.3 |
| 20260506162950 | 86 | 230 | 3.5 | 6.1 | 0.00 | 0.00 | 0.00 | 55 | 1017.4 |
| 20260506162448 | 86 | 178 | 2.6 | 5.2 | 0.00 | 0.00 | 0.00 | 52 | 1017.4 |
| 20260506161945 | 86 | 276 | 1.7 | 5.2 | 0.00 | 0.00 | 0.00 | 53 | 1017.5 |
| 20260506161443 | 85 | 150 | 1.7 | 5.2 | 0.00 | 0.00 | 0.00 | 53 | 1017.6 |
| 20260506160940 | 86 | 250 | 9.6 | 9.6 | 0.00 | 0.00 | 0.00 | 52 | 1017.4 |
| 20260506160438 | 86 | 138 | 2.6 | 3.5 | 0.00 | 0.00 | 0.00 | 53 | 1017.5 |
| 20260506155935 | 86 | 235 | 2.6 | 7.0 | 0.00 | 0.00 | 0.00 | 54 | 1017.8 |
| 20260506155433 | 85 | 135 | 2.6 | 5.2 | 0.00 | 0.00 | 0.00 | 54 | 1017.3 |
| 20260506153554 | 84 | 237 | 3.5 | 5.2 | 0.00 | 0.00 | 0.00 | 53 | 1017.9 |
| 20260506153051 | 85 | 203 | 1.7 | 4.3 | 0.00 | 0.00 | 0.00 | 54 | 1017.7 |
| 20260506152548 | 84 | 261 | 4.3 | 4.3 | 0.00 | 0.00 | 0.00 | 55 | 1017.7 |
| 20260506152046 | 84 | 258 | 6.1 | 6.1 | 0.00 | 0.00 | 0.00 | 56 | 1017.7 |
| 20260506151544 | 84 | 249 | 1.7 | 5.2 | 0.00 | 0.00 | 0.00 | 58 | 1017.7 |
| 20260506151041 | 83 | 178 | 1.7 | 3.5 | 0.00 | 0.00 | 0.00 | 59 | 1017.6 |
| 20260506150537 | 82 | 180 | 0.9 | 4.3 | 0.00 | 0.00 | 0.00 | 62 | 1017.7 |
| 20260506150034 | 83 | 258 | 2.6 | 4.3 | 0.00 | 0.00 | 0.00 | 61 | 1017.5 |
| 20260506145531 | 82 | 216 | 1.7 | 3.5 | 0.00 | 0.00 | 0.00 | 63 | 1017.5 |
| 20260506145028 | 83 | 213 | 1.7 | 5.2 | 0.00 | 0.00 | 0.00 | 61 | 1017.6 |
| 20260506144525 | 83 | 220 | 2.6 | 4.3 | 0.00 | 0.00 | 0.00 | 61 | 1017.4 |
| 20260506144022 | 82 | 222 | 1.7 | 2.6 | 0.00 | 0.00 | 0.00 | 64 | 1017.3 |
| 20260506143520 | 82 | 188 | 0.9 | 4.3 | 0.00 | 0.00 | 0.00 | 62 | 1017.4 |
| 20260506143018 | 82 | 218 | 0.9 | 4.3 | 0.00 | 0.00 | 0.00 | 63 | 1017.4 |
| 20260506142515 | 81 | 187 | 0.0 | 7.0 | 0.00 | 0.00 | 0.00 | 65 | 1017.4 |
| 20260506142014 | 81 | 180 | 0.9 | 3.5 | 0.00 | 0.00 | 0.00 | 65 | 1017.5 |
| 20260506141511 | 80 | 224 | 1.7 | 2.6 | 0.00 | 0.00 | 0.00 | 68 | 1017.6 |
| 20260506141009 | 79 | 234 | 0.9 | 3.5 | 0.00 | 0.00 | 0.00 | 69 | 1017.3 |
| 20260506140506 | 79 | 212 | 2.6 | 3.5 | 0.00 | 0.00 | 0.00 | 68 | 1017.4 |
| 20260506140004 | 79 | 225 | 2.6 | 5.2 | 0.00 | 0.00 | 0.00 | 68 | 1017.5 |
| 20260506135500 | 78 | 224 | 1.7 | 3.5 | 0.00 | 0.00 | 0.00 | 70 | 1017.4 |
| 20260506134956 | 79 | 211 | 3.5 | 8.7 | 0.00 | 0.00 | 0.00 | 68 | 1017.6 |
| 20260506134452 | 79 | 69 | 0.9 | 2.6 | 0.00 | 0.00 | 0.00 | 69 | 1017.6 |
| 20260506133949 | 78 | 227 | 0.9 | 4.3 | 0.00 | 0.00 | 0.00 | 70 | 1017.4 |
| 20260506133446 | 78 | 224 | 3.5 | 5.2 | 0.00 | 0.00 | 0.00 | 68 | 1017.6 |
| 20260506132943 | 78 | 228 | 2.6 | 4.3 | 0.00 | 0.00 | 0.00 | 70 | 1017.6 |
| 20260506132440 | 78 | 237 | 3.5 | 4.3 | 0.00 | 0.00 | 0.00 | 69 | 1017.4 |
| 20260506131937 | 78 | 89 | 0.0 | 5.2 | 0.00 | 0.00 | 0.00 | 69 | 1017.2 |
| 20260506131434 | 78 | 212 | 1.7 | 3.5 | 0.00 | 0.00 | 0.00 | 70 | 1017.3 |
| 20260506130931 | 77 | 242 | 0.0 | 2.6 | 0.00 | 0.00 | 0.00 | 71 | 1017.2 |
| 20260506130427 | 76 | 213 | 0.9 | 3.5 | 0.00 | 0.00 | 0.00 | 72 | 1017.1 |
| 20260506125925 | 76 | 193 | 0.9 | 3.5 | 0.00 | 0.00 | 0.00 | 72 | 1017.3 |
| 20260506125423 | 75 | 219 | 0.0 | 0.9 | 0.00 | 0.00 | 0.00 | 74 | 1017.2 |
| 20260506124921 | 74 | 221 | 0.9 | 3.5 | 0.00 | 0.00 | 0.00 | 74 | 1017.0 |
| 20260506124419 | 74 | 77 | 0.0 | 1.7 | 0.00 | 0.00 | 0.00 | 74 | 1017.2 |
| 20260506123916 | 74 | 207 | 1.7 | 1.7 | 0.00 | 0.00 | 0.00 | 75 | 1017.1 |
| 20260506123414 | 72 | 212 | 0.0 | 2.6 | 0.00 | 0.00 | 0.00 | 78 | 1017.1 |
| 20260506122911 | 72 | 297 | 0.0 | 0.9 | 0.00 | 0.00 | 0.00 | 82 | 1017.1 |
| 20260506122408 | 69 | 135 | 0.0 | 1.7 | 0.00 | 0.00 | 0.00 | 83 | 1016.9 |
| 20260506121907 | 69 | 147 | 1.7 | 1.7 | 0.00 | 0.00 | 0.00 | 85 | 1017.0 |
| 20260506121403 | 68 | 89 | 0.0 | 0.9 | 0.00 | 0.00 | 0.00 | 89 | 1016.9 |
| 20260506120900 | 66 | 129 | 0.0 | 0.0 | 0.00 | 0.00 | 0.00 | 91 | 1016.8 |
| 20260506120357 | 65 | 124 | 0.0 | 0.9 | 0.00 | 0.00 | 0.00 | 92 | 1017.0 |
| 20260506115855 | 64 | 76 | 0.0 | 0.0 | 0.00 | 0.00 | 0.00 | 93 | 1016.9 |
| 20260506115353 | 64 | 124 | 0.0 | 0.9 | 0.00 | 0.00 | 0.00 | 93 | 1016.7 |
| 20260506114851 | 63 | 119 | 0.0 | 0.9 | 0.00 | 0.00 | 0.00 | 94 | 1016.7 |
| 20260506114348 | 62 | 115 | 0.9 | 0.9 | 0.00 | 0.00 | 0.00 | 94 | 1016.8 |
| 20260506113847 | 61 | 159 | 0.0 | 0.0 | 0.00 | 0.00 | 0.00 | 94 | 1016.5 |
| 20260506113344 | 60 | 142 | 0.0 | 0.9 | 0.00 | 0.00 | 0.00 | 94 | 1016.6 |
| 20260506112840 | 60 | 135 | 0.0 | 0.9 | 0.00 | 0.00 | 0.00 | 95 | 1016.7 |
| 20260506112337 | 60 | 135 | 0.0 | 0.9 | 0.00 | 0.00 | 0.00 | 95 | 1016.6 |
| 20260506111835 | 59 | 142 | 0.0 | 0.0 | 0.00 | 0.00 | 0.00 | 95 | 1016.5 |
| 20260506111333 | 59 | 176 | 0.0 | 1.7 | 0.00 | 0.00 | 0.00 | 95 | 1016.6 |
| 20260506110830 | 58 | 25 | 0.0 | 0.0 | 0.00 | 0.00 | 0.00 | 95 | 1016.5 |
| 20260506110327 | 58 | 142 | 0.0 | 0.9 | 0.00 | 0.00 | 0.00 | 95 | 1016.5 |
| 20260506105824 | 58 | 142 | 0.0 | 1.7 | 0.00 | 0.00 | 0.00 | 95 | 1016.4 |
| 20260506105320 | 58 | 151 | 0.0 | 1.7 | 0.00 | 0.00 | 0.00 | 95 | 1016.4 |
| 20260506104818 | 58 | 136 | 1.7 | 1.7 | 0.00 | 0.00 | 0.00 | 95 | 1016.2 |
| 20260506104316 | 58 | 154 | 0.0 | 1.7 | 0.00 | 0.00 | 0.00 | 95 | 1016.2 |
| 20260506103813 | 58 | 147 | 0.0 | 1.7 | 0.00 | 0.00 | 0.00 | 95 | 1015.9 |
| 20260506103310 | 58 | 119 | 0.9 | 1.7 | 0.00 | 0.00 | 0.00 | 95 | 1016.1 |
| 20260506102808 | 58 | 129 | 0.0 | 1.7 | 0.00 | 0.00 | 0.00 | 95 | 1016.2 |
| 20260506102306 | 58 | 142 | 0.9 | 1.7 | 0.00 | 0.00 | 0.00 | 95 | 1016.2 |
| 20260506101803 | 58 | 125 | 0.0 | 1.7 | 0.00 | 0.00 | 0.00 | 95 | 1016.1 |
| 20260506101258 | 58 | 129 | 0.0 | 0.9 | 0.00 | 0.00 | 0.00 | 95 | 1016.4 |
| 20260506100757 | 58 | 103 | 0.0 | 0.0 | 0.00 | 0.00 | 0.00 | 95 | 1016.2 |
| 20260506100254 | 58 | 115 | 0.0 | 0.9 | 0.00 | 0.00 | 0.00 | 95 | 1016.2 |
| 20260506095753 | 58 | 142 | 0.0 | 0.9 | 0.00 | 0.00 | 0.00 | 95 | 1016.1 |
| 20260506095249 | 58 | 145 | 0.0 | 0.0 | 0.00 | 0.00 | 0.00 | 95 | 1016.2 |
| 20260506094746 | 58 | 50 | 0.0 | 0.0 | 0.00 | 0.00 | 0.00 | 94 | 1016.1 |
| 20260506094244 | 58 | 148 | 0.0 | 1.7 | 0.00 | 0.00 | 0.00 | 95 | 1016.0 |
| 20260506093743 | 58 | 113 | 0.0 | 0.0 | 0.00 | 0.00 | 0.00 | 94 | 1016.0 |
| 20260506093239 | 58 | 150 | 0.0 | 0.9 | 0.00 | 0.00 | 0.00 | 94 | 1016.1 |
| 20260506092737 | 58 | 163 | 0.0 | 0.9 | 0.00 | 0.00 | 0.00 | 94 | 1015.9 |
| 20260506092235 | 58 | 92 | 0.0 | 1.7 | 0.00 | 0.00 | 0.00 | 94 | 1015.8 |
| 20260506091732 | 58 | 108 | 0.9 | 1.7 | 0.00 | 0.00 | 0.00 | 94 | 1015.8 |
| 20260506091229 | 57 | 129 | 0.0 | 0.0 | 0.00 | 0.00 | 0.00 | 94 | 1015.9 |
| 20260506090727 | 57 | 140 | 0.9 | 0.9 | 0.00 | 0.00 | 0.00 | 94 | 1015.8 |
| 20260506090224 | 58 | 142 | 0.0 | 0.0 | 0.00 | 0.00 | 0.00 | 94 | 1016.0 |
| 20260506085721 | 58 | 157 | 0.0 | 0.0 | 0.00 | 0.00 | 0.00 | 94 | 1015.9 |
| 20260506085217 | 58 | 129 | 0.0 | 0.9 | 0.00 | 0.00 | 0.00 | 94 | 1015.8 |
| 20260506084714 | 58 | 134 | 0.9 | 1.7 | 0.00 | 0.00 | 0.00 | 94 | 1015.4 |
| 20260506084210 | 58 | 132 | 0.0 | 1.7 | 0.00 | 0.00 | 0.00 | 94 | 1015.7 |
| 20260506083707 | 58 | 124 | 0.0 | 1.7 | 0.00 | 0.00 | 0.00 | 94 | 1015.9 |
| 20260506083205 | 58 | 120 | 0.9 | 0.9 | 0.00 | 0.00 | 0.00 | 94 | 1015.9 |
| 20260506082702 | 58 | 133 | 0.9 | 1.7 | 0.00 | 0.00 | 0.00 | 94 | 1016.0 |
| 20260506082202 | 58 | 50 | 0.0 | 0.9 | 0.00 | 0.00 | 0.00 | 93 | 1015.9 |
| 20260506081700 | 58 | 137 | 0.9 | 1.7 | 0.00 | 0.00 | 0.00 | 93 | 1015.8 |
| 20260506081158 | 58 | 139 | 0.0 | 1.7 | 0.00 | 0.00 | 0.00 | 93 | 1015.7 |
| 20260506080655 | 58 | 145 | 0.0 | 0.0 | 0.00 | 0.00 | 0.00 | 93 | 1015.9 |
| 20260506080152 | 58 | 125 | 0.9 | 1.7 | 0.00 | 0.00 | 0.00 | 93 | 1015.7 |
| 20260506073136 | 58 | 122 | 0.0 | 1.7 | 0.00 | 0.00 | 0.00 | 93 | 1015.7 |
| 20260506072632 | 58 | 115 | 0.9 | 1.7 | 0.00 | 0.00 | 0.00 | 93 | 1016.1 |
| 20260506072130 | 58 | 117 | 0.0 | 0.9 | 0.00 | 0.00 | 0.00 | 92 | 1015.8 |
| 20260506071628 | 58 | 130 | 0.0 | 0.9 | 0.00 | 0.00 | 0.00 | 92 | 1016.0 |
| 20260506071125 | 58 | 157 | 0.0 | 0.9 | 0.00 | 0.00 | 0.00 | 92 | 1015.9 |
| 20260506070622 | 58 | 151 | 0.0 | 0.9 | 0.00 | 0.00 | 0.00 | 92 | 1016.1 |
| 20260506070119 | 58 | 109 | 0.9 | 0.9 | 0.00 | 0.00 | 0.00 | 92 | 1015.8 |
| 20260506062056 | 58 | 142 | 0.0 | 0.0 | 0.00 | 0.00 | 0.00 | 91 | 1016.3 |
| 20260506061552 | 58 | 142 | 0.0 | 0.0 | 0.00 | 0.00 | 0.00 | 91 | 1016.5 |
| 20260506061050 | 58 | 148 | 0.0 | 0.9 | 0.00 | 0.00 | 0.00 | 91 | 1016.3 |
| 20260506060548 | 58 | 109 | 0.0 | 1.7 | 0.00 | 0.00 | 0.00 | 91 | 1016.4 |